Regional Weather Roundup
Issued by NWS

Home | Current Version | Previous Version | Graphics & Text | Print | Product List | Glossary On
Versions: 1 2 3 4 5 6 7 8 9 10 11 12 13 14 15 16 17 18 19 20 21 22 23 24 25 26 27 28 29 30 31 32 33 34 35 36 37 38 39 40 41 42 43 44 45 46 47 48 49 50
022
ASUS45 KCYS 221210
RWRWY

WYOMING REGIONAL WEATHER ROUNDUP
NATIONAL WEATHER SERVICE CHEYENNE WY
600 AM MDT FRI SEP 22 2017

NOTE:  "FAIR" INDICATES FEW OR NO CLOUDS BELOW 12,000 FEET
WITH NO SIGNIFICANT WEATHER AND/OR OBSTRUCTIONS TO VISIBILITY.

WYZ001-221300-
YELLOWSTONE NATIONAL PARK

CITY           SKY/WX    TMP DP  RH WIND       PRES   REMARKS
LK YELLOWSTONE NOT AVBL
W YELLOWSTONE  NOT AVBL

$$
WYZ002>013-054>058-071-098>099-221300-
NORTHERN WYOMING

CITY           SKY/WX    TMP DP  RH WIND       PRES   REMARKS
JACKSON        CLOUDY    34  34 100 CALM      29.81S
CODY           FLURRIES  33  32  96 N7        29.93F WCI  27
GREYBULL       LGT RAIN  39  38  96 NW15      29.90F WCI  31
6HR MIN TEMP:  39; 6HR MAX TEMP:  45; 6HR PCP: TRACE;

WORLAND        CLOUDY    40  39  97 NW6       29.92R
6HR MIN TEMP:  40; 6HR MAX TEMP:  45;

SHERIDAN       CLOUDY    43  40  89 NW10      29.94R
6HR MIN TEMP:  43; 6HR MAX TEMP:  46;

BUFFALO        CLOUDY    43  33  68 NW16G23   29.92R
6HR MIN TEMP:  43; 6HR MAX TEMP:  46;

GILLETTE       FAIR      41  34  76 N13       29.86R
6HR MIN TEMP:  40; 6HR MAX TEMP:  43;

HULETT         CLOUDY    45  34  65 NE6       29.86R
NEWCASTLE      FAIR      45  37  76 CALM      29.79R

$$
WYZ014>020-022>026-101>103-221300-
CENTRAL WYOMING

CITY           SKY/WX    TMP DP  RH WIND       PRES   REMARKS
BIG PINEY      LGT RAIN  42  35  76 S16G23    29.82S
6HR MIN TEMP:  41; 6HR MAX TEMP:  47; 6HR PCP: TRACE;

PINEDALE       LGT RAIN  37  37 100 SE10      29.85S WCI  30
DUBOIS         SNOW      32  32 100 SE7       29.82R VSB 1/2 WCI  26
LANDER           N/A    N/A N/A N/A MISG      29.90R
RIVERTON       LGT RAIN  39  36  89 NE7       29.89R WCI  34
6HR MIN TEMP:  39; 6HR MAX TEMP:  44; 6HR PCP: TRACE;

CASPER         MOCLDY    35  31  85 NW5       29.88R WCI  31
6HR MIN TEMP:  34; 6HR MAX TEMP:  42;

DOUGLAS        FAIR      36  31  82 NW7       29.86R WCI  30
6HR MIN TEMP:  36; 6HR MAX TEMP:  46;


$$
WYZ021-027>030-104>119-221300-
SOUTHERN WYOMING

CITY           SKY/WX    TMP DP  RH WIND       PRES   REMARKS
EVANSTON       FOG       33  33 100 SW9       29.82S VSB 3/4 WCI  25
6HR MIN TEMP:  33; 6HR MAX TEMP:  35; 6HR PCP: TRACE;

KEMMERER         N/A     36  34  93 SW3       29.83R
FORT BRIDGER   CLOUDY    39  38  97 SW13G18   29.85F WCI  32
ROCK SPRINGS   RAIN      39  36  89 NW8       29.88R FOG     WCI  33
6HR MIN TEMP:  39; 6HR MAX TEMP:  53; 6HR PCP:  0.09;

DIXON          FAIR      59  26  28 S21       29.83S
RAWLINS        FAIR      43  34  70 W10       29.84R
6HR MIN TEMP:  43; 6HR MAX TEMP:  58;

SARATOGA       FAIR      54  25  32 S14G22    29.84R
LARAMIE        FAIR      37  20  50 VRB7      29.86R WCI  32
6HR MIN TEMP:  35; 6HR MAX TEMP:  54;

CHEYENNE       FAIR      45  36  70 N7        29.83S
6HR MIN TEMP:  45; 6HR MAX TEMP:  57;

TORRINGTON     FAIR      42  37  82 NW6       29.79R
6HR MIN TEMP:  42; 6HR MAX TEMP:  60;

PINE BLUFFS    FAIR      39  36  87 MISG      29.80S

$$




USA.gov is the U.S. government's official web portal to all federal, state and local government web resources and services.